YAOGAN-22

Last updated on Sat Oct 25 2025 00:02:32 GMT+0000 (Coordinated Universal Time)

1 40275U 14063A 25297.65471891 -.00000003 00000+0 11444-3 0 9998 2 40275 100.7386 80.3913 0006293 5.2625 354.8552 13.15519098528840
UTC large
Height (km)
Speed (km/s)
/
Latitude / Longitude
Inclination (degrees)
Orbital Period (minutes)
Azimuth
Elevation
Range (km)
Doppler Factor

Next 0 passes for location: London (51.5072 / 0.1276)

Sorry there are no passes over London.